Wind_Speed
46 46 45 44 43 42 42 40 39 39 39 38 37 37 37 37 37 35 35 35 34 34 33 33 33 32 31 31 30 30 30 30 29 29 29 29 29 29 28 28 28 27 27
49 48 47 47 46 45 44 44 43 41 40 40 39 37 37 38 38 37 36 36 36 35 35 35 34 34 33 33 33 32 32 31 31 31 31 31 30 30 29 29 28 28 28
52 51 50 49 48 47 47 47 46 45 43 42 41 40 39 39 39 39 38 38 38 37 37 36 36 36 35 35 34 34 34 34 33 33 33 33 32 32 31 30 30 30 29
55 55 53 52 51 50 50 49 48 47 46 44 43 42 42 41 40 40 40 40 39 39 39 38 38 37 37 37 36 36 36 36 35 35 34 34 34 33 33 33 32 31 30
57 57 57 55 54 53 52 51 50 48 48 47 46 45 45 44 43 42 41 41 41 41 41 40 40 39 39 39 38 38 38 38 37 37 36 36 35 35 35 35 34 33 32
57 57 58 58 57 56 54 53 53 52 51 49 48 47 47 46 45 44 43 43 42 42 42 42 42 41 41 41 40 39 40 39 39 39 38 38 37 37 37 36 35 34 34
56 57 56 57 58 58 57 56 55 54 53 52 51 50 49 49 48 47 46 44 43 43 43 43 43 43 43 42 41 41 41 41 40 40 39 39 38 38 38 37 36 35 34
54 55 54 55 56 57 56 56 55 54 54 54 54 53 51 50 49 48 47 46 45 45 44 44 44 43 44 44 43 43 42 42 41 41 41 41 40 39 39 38 37 36 35
52 52 51 51 54 55 56 56 55 55 54 54 55 54 53 51 50 49 48 48 47 47 46 46 45 44 44 44 44 43 43 43 43 42 42 41 40 39 39 39 38 37 35
50 51 52 52 52 53 53 53 54 55 55 54 54 55 55 55 54 51 49 48 47 48 48 47 47 47 45 44 43 43 44 43 43 42 42 42 41 40 40 39 38 37 36
48 50 51 51 51 51 51 52 54 55 54 54 54 54 54 54 54 54 51 49 48 48 49 49 49 47 46 45 44 44 44 43 43 42 43 42 41 41 40 39 39 38 37
46 48 49 50 50 49 49 50 52 54 53 53 54 54 54 54 54 54 53 52 51 49 49 49 49 48 47 46 45 45 45 45 44 44 44 43 42 42 42 41 40 40 39
42 45 46 48 48 48 48 48 50 51 51 51 52 54 54 54 55 56 53 53 53 50 51 50 48 48 48 49 48 46 45 46 46 45 45 45 44 43 43 42 41 40 39
39 42 44 45 46 46 47 48 49 49 50 51 51 52 53 54 54 55 55 54 53 52 51 50 50 50 49 49 49 49 47 47 47 46 46 46 45 44 43 41 40 40 40
34 37 38 40 42 43 44 45 45 47 49 51 51 52 54 54 53 53 54 54 54 53 53 52 51 50 50 51 50 50 50 49 48 48 47 47 46 45 44 42 41 39 39
30 31 33 34 36 38 40 42 43 44 46 47 49 50 51 53 53 53 53 53 54 54 53 51 52 51 51 51 52 52 51 51 50 49 48 48 47 46 45 44 42 41 39
28 30 32 33 35 36 37 39 41 43 45 46 47 49 51 52 55 54 55 55 56 57 56 54 55 54 54 53 53 53 52 52 50 50 49 48 48 48 47 46 45 43 42
28 29 31 32 34 36 37 39 41 43 44 46 48 50 51 52 54 55 55 55 56 57 57 57 57 57 58 57 56 55 54 53 53 52 51 51 51 50 49 48 46 45 44
28 30 32 34 35 37 38 40 42 44 45 47 49 51 52 53 55 57 57 57 57 58 59 60 60 60 60 60 59 57 57 56 55 55 54 53 53 52 51 50 48 47 46
29 30 32 34 36 37 39 41 43 45 46 48 50 51 53 54 55 57 58 59 60 60 61 61 61 61 61 61 61 61 60 58 57 57 56 55 55 54 54 53 51 49 47
30 32 33 35 37 38 40 41 43 45 46 48 51 53 55 56 57 58 59 60 61 62 63 63 62 62 62 62 63 62 62 60 58 57 56 56 56 55 55 54 53 51 49
32 33 35 37 38 40 41 43 44 46 47 49 51 53 54 56 58 59 60 61 63 63 63 62 62 62 62 62 63 63 62 61 59 58 58 58 57 56 56 55 54 52 50
35 35 37 38 40 42 43 44 46 47 49 50 51 53 55 56 58 59 60 61 61 61 61 62 61 61 62 62 62 63 63 63 62 60 60 59 59 58 56 55 54 53 52
36 38 39 40 41 43 45 46 47 48 50 51 53 54 55 56 58 59 59 59 60 60 60 60 61 60 60 62 62 62 61 62 62 61 61 61 59 58 57 56 55 54 53
38 39 41 42 43 44 46 47 48 49 50 51 52 53 55 55 56 57 57 58 58 58 59 59 59 59 59 60 62 62 62 62 62 61 60 60 58 57 56 56 55 54 52
38 39 40 42 43 44 46 47 48 49 50 51 51 52 53 54 55 56 56 56 56 56 57 57 58 59 59 59 60 61 61 60 60 60 59 58 58 58 56 55 55 54 52
Wind_Direction
258 258 258 258 258 258 259 260 262 263 263 263 263 263 262 262 263 263 262 262 263 264 265 266 267 268 269 270 271 273 275 277 279 280 282 285 288 292 295 298 299 300 301
256 256 257 257 257 258 258 259 260 261 262 263 263 262 263 262 261 262 262 262 263 263 264 266 267 268 269 270 271 272 274 276 278 280 282 285 287 290 293 295 296 297 299
256 256 255 256 256 257 257 257 258 259 260 262 262 262 263 263 261 261 262 262 262 263 264 265 266 267 268 269 270 272 273 275 277 279 281 284 286 288 290 292 293 294 296
255 255 255 255 255 255 256 256 256 258 258 259 261 262 262 262 262 262 262 262 262 262 263 263 265 266 267 268 269 270 272 275 277 279 280 282 284 286 289 290 291 292 293
255 255 255 255 255 255 255 255 255 255 256 257 259 260 261 261 260 262 263 262 261 261 262 263 264 265 266 267 268 270 271 274 276 278 279 281 283 285 287 289 290 289 290
254 254 254 254 254 254 254 254 254 254 254 256 256 257 260 260 260 261 261 261 261 262 262 262 263 264 265 266 268 269 271 272 274 276 278 280 281 283 286 287 288 287 288
254 254 254 254 253 253 253 253 253 253 253 254 255 255 256 258 259 260 261 260 260 261 262 262 262 263 264 265 267 269 270 271 273 274 276 278 280 282 283 285 286 285 286
254 253 252 253 253 252 252 252 253 253 253 255 255 255 255 255 257 258 259 259 260 260 260 261 263 263 263 264 266 268 269 270 272 274 275 275 277 279 281 282 283 282 284
253 252 251 252 252 251 252 252 251 252 252 254 255 255 255 256 257 258 258 258 259 259 260 261 262 262 263 264 266 266 267 269 271 272 273 274 275 277 278 280 281 281 282
253 252 252 252 253 253 252 252 251 252 252 252 254 255 255 255 256 256 257 258 258 259 260 260 261 261 262 264 265 266 267 268 270 271 272 274 274 275 277 279 279 279 280
252 251 251 252 252 253 253 251 251 252 252 253 254 254 255 256 256 256 257 257 258 258 259 260 260 260 261 263 264 264 265 267 267 269 271 271 273 274 275 276 276 277 277
252 252 252 252 253 255 254 252 251 252 253 253 253 254 255 255 255 256 257 257 258 258 259 259 260 261 261 262 263 264 265 266 266 268 270 271 273 274 274 274 274 275 275
254 253 254 254 254 256 256 255 253 252 253 254 255 255 255 255 256 256 257 258 257 258 259 259 260 261 262 263 263 262 264 266 265 267 269 270 272 273 273 274 273 274 273
257 256 255 256 256 257 256 256 256 254 254 254 255 256 255 255 257 258 258 258 258 259 259 260 260 259 260 261 262 263 264 265 265 266 268 268 269 271 272 272 273 272 271
260 257 256 256 256 257 256 255 255 254 255 255 255 256 255 255 257 258 258 259 260 261 260 261 261 259 260 261 262 262 263 263 264 265 267 266 267 269 270 270 271 270 271
264 260 260 260 259 259 259 256 255 255 256 257 257 256 257 257 258 259 259 260 261 263 264 262 261 260 260 262 263 264 263 262 262 264 266 266 266 267 268 268 267 268 268
266 264 264 263 261 261 261 261 259 258 258 258 258 258 259 259 259 261 261 262 264 265 265 263 262 261 259 260 262 264 263 261 261 262 264 265 266 266 265 266 266 266 266
273 270 269 267 265 264 263 263 263 261 261 261 260 260 261 261 261 262 263 265 266 267 266 264 263 262 260 261 261 262 262 262 261 261 262 264 265 264 263 264 264 264 264
277 274 272 270 268 267 266 265 265 264 264 264 264 263 263 263 262 262 263 264 265 266 266 265 264 262 261 261 261 261 261 261 262 262 261 262 263 263 262 261 262 262 262
280 277 276 274 272 271 270 269 268 268 267 266 266 265 265 265 264 264 264 265 265 265 265 265 265 263 262 261 260 260 261 261 261 261 261 261 262 262 261 260 260 261 262
283 281 279 278 276 274 273 272 271 271 271 270 268 267 267 266 266 266 265 264 264 264 265 266 266 264 263 261 260 260 260 260 260 260 260 261 261 261 260 259 260 260 261
286 284 282 281 280 279 278 276 275 274 273 272 271 270 269 269 268 267 266 266 266 266 266 266 265 264 263 262 261 260 260 260 259 260 261 261 261 260 260 259 259 259 259
290 289 287 285 283 282 281 280 279 277 276 275 274 272 271 271 269 268 267 268 267 267 266 265 264 264 263 262 261 260 259 259 260 260 260 261 260 260 259 258 258 258 258
293 291 289 288 286 285 283 282 281 280 279 278 277 275 274 273 272 271 269 268 267 265 264 264 264 263 262 261 260 259 258 258 258 257 258 259 260 259 258 256 255 255 255
295 292 291 289 288 287 286 285 284 283 281 280 279 278 277 276 274 273 272 270 267 266 265 264 263 263 262 262 261 260 258 257 257 257 258 258 259 258 256 254 252 252 253
300 298 296 294 292 290 289 288 287 285 282 280 279 279 279 278 276 275 273 271 269 267 265 264 263 263 263 262 261 259 258 257 256 256 255 256 257 256 255 253 251 251 251
Height
5802 5804 5806 5808 5810 5812 5814 5815 5816 5817 5818 5820 5821 5823 5824 5826 5827 5829 5830 5830 5831 5832 5833 5834 5834 5835 5835 5835 5835 5835 5835 5835 5834 5833 5833 5832 5831 5830 5829 5827 5826 5824 5823
5792 5794 5797 5799 5801 5803 5805 5806 5808 5809 5811 5812 5813 5815 5816 5817 5819 5821 5822 5823 5824 5825 5826 5827 5827 5828 5828 5829 5829 5829 5829 5828 5828 5827 5827 5826 5825 5824 5823 5822 5820 5819 5818
5781 5784 5786 5789 5791 5793 5795 5797 5799 5800 5802 5803 5805 5806 5808 5809 5811 5812 5814 5815 5816 5817 5818 5819 5820 5821 5821 5821 5822 5822 5822 5822 5821 5821 5820 5820 5819 5818 5817 5816 5815 5813 5812
5769 5772 5774 5777 5780 5782 5785 5787 5789 5791 5792 5794 5796 5797 5799 5800 5802 5803 5805 5807 5808 5809 5810 5811 5812 5813 5813 5814 5814 5814 5814 5814 5814 5814 5813 5813 5812 5811 5811 5810 5808 5807 5806
5756 5760 5762 5765 5768 5771 5773 5776 5778 5780 5782 5784 5786 5787 5789 5790 5792 5794 5796 5798 5799 5800 5802 5803 5804 5805 5805 5805 5806 5806 5806 5806 5807 5806 5806 5805 5805 5804 5803 5803 5802 5801 5799
5743 5746 5750 5753 5756 5759 5762 5764 5767 5769 5770 5773 5775 5776 5778 5780 5782 5784 5786 5788 5789 5791 5792 5794 5794 5795 5796 5797 5797 5798 5798 5798 5798 5798 5798 5798 5797 5797 5796 5795 5794 5793 5792
5730 5733 5737 5740 5743 5746 5749 5752 5754 5756 5759 5761 5763 5765 5767 5769 5771 5773 5775 5778 5779 5781 5782 5783 5785 5786 5787 5787 5788 5789 5789 5789 5789 5790 5789 5789 5789 5789 5788 5787 5787 5786 5785
5717 5720 5724 5727 5730 5732 5735 5738 5741 5744 5747 5748 5751 5752 5755 5758 5760 5762 5764 5766 5769 5770 5772 5773 5774 5775 5777 5778 5778 5779 5779 5780 5780 5780 5780 5780 5780 5780 5780 5779 5779 5778 5777
5703 5707 5711 5714 5716 5719 5723 5726 5729 5732 5734 5736 5738 5741 5743 5747 5749 5751 5753 5755 5757 5759 5760 5762 5763 5764 5766 5767 5768 5769 5769 5770 5770 5771 5771 5771 5771 5771 5771 5770 5770 5770 5769
5690 5694 5698 5701 5704 5707 5709 5713 5716 5718 5721 5724 5726 5728 5732 5734 5737 5740 5742 5743 5745 5747 5749 5750 5752 5753 5754 5756 5757 5758 5759 5759 5760 5761 5761 5761 5762 5762 5762 5761 5761 5761 5761
5679 5682 5685 5688 5691 5694 5697 5700 5703 5705 5708 5711 5714 5716 5719 5721 5723 5726 5729 5732 5733 5735 5737 5738 5740 5741 5743 5744 5746 5747 5748 5748 5749 5750 5751 5751 5752 5752 5752 5752 5752 5752 5752
5667 5670 5673 5676 5679 5682 5685 5687 5690 5693 5696 5698 5701 5703 5706 5708 5711 5713 5716 5719 5721 5723 5724 5726 5728 5730 5731 5732 5734 5735 5736 5737 5738 5739 5740 5741 5742 5742 5742 5742 5742 5742 5742
5657 5660 5662 5665 5668 5670 5673 5675 5678 5681 5683 5686 5688 5691 5693 5696 5698 5699 5702 5705 5707 5710 5712 5714 5716 5717 5718 5720 5722 5723 5724 5725 5727 5728 5729 5730 5731 5731 5732 5732 5732 5732 5732
5647 5649 5651 5654 5657 5659 5661 5663 5666 5669 5671 5673 5676 5678 5680 5682 5684 5686 5688 5691 5693 5696 5698 5701 5703 5705 5706 5707 5709 5710 5712 5713 5714 5716 5717 5718 5719 5720 5720 5721 5721 5722 5722
5638 5640 5641 5643 5645 5648 5650 5652 5654 5657 5659 5661 5663 5665 5667 5669 5671 5673 5674 5676 5679 5681 5685 5688 5689 5691 5692 5694 5695 5697 5699 5700 5702 5703 5704 5706 5707 5708 5709 5710 5710 5711 5712
5630 5631 5632 5634 5635 5637 5638 5640 5643 5645 5646 5648 5650 5652 5654 5656 5658 5659 5661 5662 5663 5666 5670 5674 5675 5677 5678 5680 5681 5683 5685 5687 5688 5690 5691 5693 5694 5696 5697 5698 5699 5700 5701
5623 5624 5624 5625 5626 5627 5628 5630 5631 5633 5634 5636 5637 5639 5640 5642 5644 5646 5647 5648 5649 5650 5653 5658 5659 5661 5662 5664 5667 5668 5670 5672 5674 5676 5678 5679 5681 5682 5684 5685 5686 5688 5689
5616 5616 5616 5616 5617 5618 5618 5619 5621 5622 5623 5624 5625 5626 5627 5628 5629 5631 5632 5633 5634 5634 5636 5640 5643 5644 5646 5648 5650 5652 5654 5656 5659 5661 5663 5665 5667 5668 5670 5671 5673 5675 5677
5608 5608 5607 5608 5608 5608 5608 5608 5609 5610 5610 5611 5612 5612 5613 5613 5614 5615 5616 5617 5617 5618 5619 5621 5624 5627 5629 5631 5633 5635 5638 5640 5642 5645 5647 5649 5652 5653 5655 5657 5659 5661 5663
5600 5599 5598 5598 5597 5597 5597 5597 5597 5597 5597 5597 5597 5597 5597 5597 5598 5598 5599 5599 5600 5600 5601 5602 5604 5607 5609 5611 5613 5617 5620 5623 5625 5628 5630 5633 5636 5638 5640 5643 5645 5647 5650
5592 5591 5589 5588 5587 5586 5585 5584 5584 5583 5583 5582 5581 5581 5581 5580 5580 5580 5580 5581 5581 5581 5582 5583 5585 5587 5589 5591 5594 5597 5600 5604 5607 5610 5613 5616 5619 5621 5624 5627 5630 5632 5635
5583 5581 5579 5578 5576 5574 5573 5571 5570 5569 5567 5566 5565 5564 5563 5562 5562 5561 5561 5561 5562 5561 5562 5563 5565 5566 5569 5571 5574 5576 5580 5584 5588 5593 5594 5598 5601 5604 5607 5610 5613 5616 5619
5573 5570 5568 5566 5564 5561 5559 5557 5555 5553 5551 5549 5547 5546 5544 5543 5542 5541 5541 5541 5541 5540 5541 5542 5544 5546 5549 5552 5554 5556 5559 5563 5569 5572 5574 5579 5582 5586 5590 5593 5596 5599 5603
5562 5560 5557 5554 5551 5548 5545 5543 5540 5538 5535 5532 5529 5527 5526 5524 5522 5520 5520 5520 5520 5520 5520 5521 5523 5526 5528 5530 5532 5535 5538 5542 5547 5551 5554 5559 5564 5567 5571 5575 5578 5582 5586
5551 5547 5544 5540 5537 5534 5530 5527 5524 5521 5518 5515 5512 5509 5507 5505 5502 5500 5499 5499 5500 5500 5500 5501 5503 5505 5507 5509 5511 5513 5517 5520 5526 5531 5534 5539 5544 5548 5552 5556 5561 5565 5569
5539 5535 5531 5527 5523 5519 5515 5511 5508 5505 5502 5499 5496 5492 5489 5486 5483 5480 5479 5479 5480 5480 5481 5482 5483 5484 5486 5488 5490 5492 5496 5500 5505 5511 5516 5519 5525 5528 5533 5539 5543 5548 5552